Location: Strohbehn Observatory
(42.4649°N, 93.8239°W)
Time: 20:39:20
(UTC-05:00)

SL-16 R/B - Visible Passes

Search period start: 23 April 2017 00:00
Search period end: 03 May 2017 00:00
Orbit: 842 x 846 km, 71.0° (Epoch: 22 April)

Date Brightness Start Highest point End Pass type
(mag) Time Alt. Az. Time Alt. Az. Time Alt. Az.
23 Apr 5.6 05:13:56 10° NE 05:14:12 10° NE 05:14:27 10° NE visible
23 Apr 2.2 21:46:11 10° SSW 21:51:51 88° WNW 21:57:34 10° NNE visible
23 Apr 4.9 23:33:25 10° W 23:36:50 16° NW 23:40:15 10° N visible
24 Apr 2.2 21:31:55 10° SSW 21:37:36 90° ESE 21:43:19 10° NNE visible
24 Apr 5.0 23:19:00 10° W 23:22:31 16° NW 23:26:03 10° N visible
25 Apr 2.2 21:17:40 10° SSW 21:23:20 87° ESE 21:29:03 10° NNE visible
25 Apr 5.0 23:04:37 10° W 23:08:14 17° NW 23:11:52 10° N visible
26 Apr 2.2 21:03:25 10° SSW 21:09:04 84° ESE 21:14:47 10° NNE visible
26 Apr 5.0 22:50:13 10° W 22:53:56 18° NW 22:57:40 10° N visible
27 Apr 2.2 20:49:10 10° SSW 20:54:49 81° ESE 21:00:31 10° NNE visible
27 Apr 5.0 22:35:50 10° W 22:39:38 18° NW 22:43:27 10° N visible
28 Apr 2.2 20:34:54 10° SSW 20:40:33 78° ESE 20:46:15 10° NNE visible
28 Apr 5.0 22:21:27 10° W 22:25:20 19° NW 22:29:15 10° N visible
29 Apr 3.7 05:28:41 10° NNW 05:34:04 42° ENE 05:39:26 10° SE visible
29 Apr 5.0 22:07:03 10° W 22:11:02 19° NW 22:15:03 10° N visible
30 Apr 3.8 05:14:26 10° NNW 05:19:48 41° ENE 05:25:07 10° SE visible
30 Apr 5.0 21:52:41 10° W 21:56:44 20° NW 22:00:50 10° N visible
01 May 3.8 05:00:12 10° N 05:05:31 39° ENE 05:10:48 10° SE visible
01 May 5.1 21:38:18 10° W 21:42:27 20° NW 21:46:37 10° N visible
02 May 3.8 04:45:58 10° N 04:51:14 38° ENE 04:56:29 10° SE visible
02 May 5.1 21:23:56 10° W 21:28:09 21° NW 21:32:24 10° N visible
